Year,Month,Day,Hour,Minute,Value (Times are PST for temperature in C)
2009,07,04,00,00,16.20
2009,07,04,00,01,16.20
2009,07,04,00,02,16.10
2009,07,04,00,03,16.10
2009,07,04,00,04,16.10
2009,07,04,00,05,16.10
2009,07,04,00,06,16.10
2009,07,04,00,07,16.10
2009,07,04,00,08,16.10
2009,07,04,00,09,16.10
2009,07,04,00,10,16.10
2009,07,04,00,11,16.10
2009,07,04,00,12,16.10
2009,07,04,00,13,16.10
2009,07,04,00,14,16.10
2009,07,04,00,15,16.10
2009,07,04,00,16,16.10
2009,07,04,00,17,16.10
2009,07,04,00,18,16.10
2009,07,04,00,19,16.10
2009,07,04,00,20,16.10
2009,07,04,00,21,16.10
2009,07,04,00,22,16.10
2009,07,04,00,23,16.10
2009,07,04,00,24,16.10
2009,07,04,00,25,16.10
2009,07,04,00,26,16.10
2009,07,04,00,27,16.10
2009,07,04,00,28,16.10
2009,07,04,00,29,16.10
2009,07,04,00,30,16.10
2009,07,04,00,31,16.10
2009,07,04,00,32,16.10
2009,07,04,00,33,16.10
2009,07,04,00,34,16.10
2009,07,04,00,35,16.10
2009,07,04,00,36,16.10
2009,07,04,00,37,16.10
2009,07,04,00,38,16.10
2009,07,04,00,39,16.10
2009,07,04,00,40,16.10
2009,07,04,00,41,16.10
2009,07,04,00,42,16.10
2009,07,04,00,43,16.10
2009,07,04,00,44,16.10
2009,07,04,00,45,16.10
2009,07,04,00,46,16.10
2009,07,04,00,47,16.10
2009,07,04,00,48,16.00
2009,07,04,00,49,15.90
2009,07,04,00,50,15.90
2009,07,04,00,51,15.90
2009,07,04,00,52,15.90
2009,07,04,00,53,15.90
2009,07,04,00,54,15.90
2009,07,04,00,55,15.80
2009,07,04,00,56,15.80
2009,07,04,00,57,15.80
2009,07,04,00,58,15.80
2009,07,04,00,59,15.80
2009,07,04,01,00,15.80
2009,07,04,01,01,15.80
2009,07,04,01,02,15.80
2009,07,04,01,03,15.70
2009,07,04,01,04,15.70
2009,07,04,01,05,15.70
2009,07,04,01,06,15.70
2009,07,04,01,07,15.80
2009,07,04,01,08,15.80
2009,07,04,01,09,15.80
2009,07,04,01,10,15.80
2009,07,04,01,11,15.80
2009,07,04,01,12,15.80
2009,07,04,01,13,15.70
2009,07,04,01,14,15.70
2009,07,04,01,15,15.70
2009,07,04,01,16,15.70
2009,07,04,01,17,15.70
2009,07,04,01,18,15.60
2009,07,04,01,19,15.60
2009,07,04,01,20,15.60
2009,07,04,01,21,15.60
2009,07,04,01,22,15.60
2009,07,04,01,23,15.60
2009,07,04,01,24,15.60
2009,07,04,01,25,15.60
2009,07,04,01,26,15.60
2009,07,04,01,27,15.50
2009,07,04,01,28,15.50
2009,07,04,01,29,15.50
2009,07,04,01,30,15.50
2009,07,04,01,31,15.50
2009,07,04,01,32,15.50
2009,07,04,01,33,15.50
2009,07,04,01,34,15.50
2009,07,04,01,35,15.50
2009,07,04,01,36,15.50
2009,07,04,01,37,15.40
2009,07,04,01,38,15.40
2009,07,04,01,39,15.40
2009,07,04,01,40,15.40
2009,07,04,01,41,15.40
2009,07,04,01,42,15.30
2009,07,04,01,43,15.30
2009,07,04,01,44,15.30
2009,07,04,01,45,15.30
2009,07,04,01,46,15.30
2009,07,04,01,47,15.30
2009,07,04,01,48,15.30
2009,07,04,01,49,15.30
2009,07,04,01,50,15.30
2009,07,04,01,51,15.30
2009,07,04,01,52,15.30
2009,07,04,01,53,15.20
2009,07,04,01,54,15.20
2009,07,04,01,55,15.20
2009,07,04,01,56,15.20
2009,07,04,01,57,15.20
2009,07,04,01,58,15.20
2009,07,04,01,59,15.10
2009,07,04,02,00,15.10
2009,07,04,02,01,15.10
2009,07,04,02,02,15.10
2009,07,04,02,03,15.10
2009,07,04,02,04,15.10
2009,07,04,02,05,15.10
2009,07,04,02,06,15.10
2009,07,04,02,07,15.10
2009,07,04,02,08,15.00
2009,07,04,02,09,15.10
2009,07,04,02,10,15.00
2009,07,04,02,11,15.00
2009,07,04,02,12,15.00
2009,07,04,02,13,15.00
2009,07,04,02,14,14.90
2009,07,04,02,15,14.80
2009,07,04,02,16,14.80
2009,07,04,02,17,14.70
2009,07,04,02,18,14.70
2009,07,04,02,19,14.60
2009,07,04,02,20,14.60
2009,07,04,02,21,14.60
2009,07,04,02,22,14.50
2009,07,04,02,23,14.50
2009,07,04,02,24,14.40
2009,07,04,02,25,14.30
2009,07,04,02,26,14.30
2009,07,04,02,27,14.20
2009,07,04,02,28,14.20
2009,07,04,02,29,14.20
2009,07,04,02,30,14.10
2009,07,04,02,31,14.10
2009,07,04,02,32,14.00
2009,07,04,02,33,14.00
2009,07,04,02,34,13.90
2009,07,04,02,35,13.90
2009,07,04,02,36,13.90
2009,07,04,02,37,13.90
2009,07,04,02,38,13.80
2009,07,04,02,39,13.80
2009,07,04,02,40,13.80
2009,07,04,02,41,13.80
2009,07,04,02,42,13.90
2009,07,04,02,43,13.90
2009,07,04,02,44,13.90
2009,07,04,02,45,13.80
2009,07,04,02,46,13.80
2009,07,04,02,47,13.80
2009,07,04,02,48,13.80
2009,07,04,02,49,13.80
2009,07,04,02,50,13.80
2009,07,04,02,51,13.80
2009,07,04,02,52,13.80
2009,07,04,02,53,13.80
2009,07,04,02,54,13.80
2009,07,04,02,55,13.80
2009,07,04,02,56,13.80
2009,07,04,02,57,13.80
2009,07,04,02,58,13.80
2009,07,04,02,59,13.80
2009,07,04,03,00,13.80
2009,07,04,03,01,13.80
2009,07,04,03,02,13.80
2009,07,04,03,03,13.80
2009,07,04,03,04,13.80
2009,07,04,03,05,13.80
2009,07,04,03,06,13.80
2009,07,04,03,07,13.80
2009,07,04,03,08,13.80
2009,07,04,03,09,13.90
2009,07,04,03,10,13.90
2009,07,04,03,11,13.90
2009,07,04,03,12,13.90
2009,07,04,03,13,13.90
2009,07,04,03,14,13.90
2009,07,04,03,15,13.80
2009,07,04,03,16,13.90
2009,07,04,03,17,13.90
2009,07,04,03,18,13.90
2009,07,04,03,19,13.90
2009,07,04,03,20,13.90
2009,07,04,03,21,13.90
2009,07,04,03,22,13.90
2009,07,04,03,23,13.90
2009,07,04,03,24,13.90
2009,07,04,03,25,13.90
2009,07,04,03,26,13.90
2009,07,04,03,27,13.90
2009,07,04,03,28,13.90
2009,07,04,03,29,13.80
2009,07,04,03,30,13.80
2009,07,04,03,31,13.80
2009,07,04,03,32,13.80
2009,07,04,03,33,13.70
2009,07,04,03,34,13.70
2009,07,04,03,35,13.70
2009,07,04,03,36,13.70
2009,07,04,03,37,13.70
2009,07,04,03,38,13.70
2009,07,04,03,39,13.70
2009,07,04,03,40,13.70
2009,07,04,03,41,13.70
2009,07,04,03,42,13.70
2009,07,04,03,43,13.70
2009,07,04,03,44,13.70
2009,07,04,03,45,13.70
2009,07,04,03,46,13.70
2009,07,04,03,47,13.70
2009,07,04,03,48,13.70
2009,07,04,03,49,13.70
2009,07,04,03,50,13.70
2009,07,04,03,51,13.70
2009,07,04,03,52,13.70
2009,07,04,03,53,13.70
2009,07,04,03,54,13.60
2009,07,04,03,55,13.60
2009,07,04,03,56,13.60
2009,07,04,03,57,13.60
2009,07,04,03,58,13.60
2009,07,04,03,59,13.60
2009,07,04,04,00,13.60
2009,07,04,04,01,13.50
2009,07,04,04,02,13.50
2009,07,04,04,03,13.50
2009,07,04,04,04,13.50
2009,07,04,04,05,13.50
2009,07,04,04,06,13.50
2009,07,04,04,07,13.40
2009,07,04,04,08,13.40
2009,07,04,04,09,13.40
2009,07,04,04,10,13.30
2009,07,04,04,11,13.30
2009,07,04,04,12,13.30
2009,07,04,04,13,13.30
2009,07,04,04,14,13.30
2009,07,04,04,15,13.30
2009,07,04,04,16,13.30
2009,07,04,04,17,13.30
2009,07,04,04,18,13.30
2009,07,04,04,19,13.30
2009,07,04,04,20,13.30
2009,07,04,04,21,13.30
2009,07,04,04,22,13.30
2009,07,04,04,23,13.20
2009,07,04,04,24,13.20
2009,07,04,04,25,13.20
2009,07,04,04,26,13.20
2009,07,04,04,27,13.20
2009,07,04,04,28,13.20
2009,07,04,04,29,13.10
2009,07,04,04,30,13.10
2009,07,04,04,31,13.10
2009,07,04,04,32,13.10
2009,07,04,04,33,13.10
2009,07,04,04,34,13.10
2009,07,04,04,35,13.10
2009,07,04,04,36,13.10
2009,07,04,04,37,13.10
2009,07,04,04,38,13.10
2009,07,04,04,39,13.00
2009,07,04,04,40,13.00
2009,07,04,04,41,13.00
2009,07,04,04,42,13.00
2009,07,04,04,43,13.00
2009,07,04,04,44,13.00
2009,07,04,04,45,13.00
2009,07,04,04,46,12.90
2009,07,04,04,47,12.90
2009,07,04,04,48,12.90
2009,07,04,04,49,12.90
2009,07,04,04,50,12.80
2009,07,04,04,51,12.80
2009,07,04,04,52,12.80
2009,07,04,04,53,12.80
2009,07,04,04,54,12.80
2009,07,04,04,55,12.80
2009,07,04,04,56,12.80
2009,07,04,04,57,12.80
2009,07,04,04,58,12.80
2009,07,04,04,59,12.80
2009,07,04,05,00,12.80
2009,07,04,05,01,12.80
2009,07,04,05,02,12.80
2009,07,04,05,03,12.80
2009,07,04,05,04,12.90
2009,07,04,05,05,12.90
2009,07,04,05,06,12.90
2009,07,04,05,07,12.90
2009,07,04,05,08,12.90
2009,07,04,05,09,12.90
2009,07,04,05,10,12.80
2009,07,04,05,11,12.80
2009,07,04,05,12,12.80
2009,07,04,05,13,12.80
2009,07,04,05,14,12.80
2009,07,04,05,15,12.80
2009,07,04,05,16,12.80
2009,07,04,05,17,12.80
2009,07,04,05,18,12.80
2009,07,04,05,19,12.80
2009,07,04,05,20,12.80
2009,07,04,05,21,12.80
2009,07,04,05,22,12.80
2009,07,04,05,23,12.80
2009,07,04,05,24,12.80
2009,07,04,05,25,12.80
2009,07,04,05,26,12.80
2009,07,04,05,27,12.80
2009,07,04,05,28,12.80
2009,07,04,05,29,12.80
2009,07,04,05,30,12.80
2009,07,04,05,31,12.80
2009,07,04,05,32,12.80
2009,07,04,05,33,12.80
2009,07,04,05,34,12.80
2009,07,04,05,35,12.80
2009,07,04,05,36,12.80
2009,07,04,05,37,12.80
2009,07,04,05,38,12.80
2009,07,04,05,39,12.80
2009,07,04,05,40,12.80
2009,07,04,05,41,12.80
2009,07,04,05,42,12.80
2009,07,04,05,43,12.80
2009,07,04,05,44,12.80
2009,07,04,05,45,12.80
2009,07,04,05,46,12.80
2009,07,04,05,47,12.80
2009,07,04,05,48,12.80
2009,07,04,05,49,12.80
2009,07,04,05,50,12.80
2009,07,04,05,51,12.80
2009,07,04,05,52,12.90
2009,07,04,05,53,13.00
2009,07,04,05,54,13.00
2009,07,04,05,55,13.10
2009,07,04,05,56,13.10
2009,07,04,05,57,13.20
2009,07,04,05,58,13.20
2009,07,04,05,59,13.20
2009,07,04,06,00,13.30
2009,07,04,06,01,13.30
2009,07,04,06,02,13.30
2009,07,04,06,03,13.30
2009,07,04,06,04,13.30
2009,07,04,06,05,13.40
2009,07,04,06,06,13.40
2009,07,04,06,07,13.40
2009,07,04,06,08,13.50
2009,07,04,06,09,13.50
2009,07,04,06,10,13.50
2009,07,04,06,11,13.50
2009,07,04,06,12,13.50
2009,07,04,06,13,13.50
2009,07,04,06,14,13.60
2009,07,04,06,15,13.60
2009,07,04,06,16,13.60
2009,07,04,06,17,13.60
2009,07,04,06,18,13.60
2009,07,04,06,19,13.60
2009,07,04,06,20,13.60
2009,07,04,06,21,13.70
2009,07,04,06,22,13.70
2009,07,04,06,23,13.70
2009,07,04,06,24,13.70
2009,07,04,06,25,13.70
2009,07,04,06,26,13.70
2009,07,04,06,27,13.70
2009,07,04,06,28,13.70
2009,07,04,06,29,13.70
2009,07,04,06,30,13.70
2009,07,04,06,31,13.70
2009,07,04,06,32,13.70
2009,07,04,06,33,13.70
2009,07,04,06,34,13.80
2009,07,04,06,35,13.80
2009,07,04,06,36,13.80
2009,07,04,06,37,13.80
2009,07,04,06,38,13.90
2009,07,04,06,39,13.90
2009,07,04,06,40,13.90
2009,07,04,06,41,14.00
2009,07,04,06,42,14.10
2009,07,04,06,43,14.20
2009,07,04,06,44,14.30
2009,07,04,06,45,14.50
2009,07,04,06,46,14.70
2009,07,04,06,47,14.80
2009,07,04,06,48,15.00
2009,07,04,06,49,15.10
2009,07,04,06,50,15.30
2009,07,04,06,51,15.40
2009,07,04,06,52,15.60
2009,07,04,06,53,15.70
2009,07,04,06,54,15.80
2009,07,04,06,55,15.90
2009,07,04,06,56,16.00
2009,07,04,06,57,16.10
2009,07,04,06,58,16.10
2009,07,04,06,59,16.20
2009,07,04,07,00,16.30
2009,07,04,07,01,16.40
2009,07,04,07,02,16.60
2009,07,04,07,03,16.70
2009,07,04,07,04,16.80
2009,07,04,07,05,16.90
2009,07,04,07,06,17.00
2009,07,04,07,07,17.10
2009,07,04,07,08,17.20
2009,07,04,07,09,17.30
2009,07,04,07,10,17.40
2009,07,04,07,11,17.50
2009,07,04,07,12,17.50
2009,07,04,07,13,17.60
2009,07,04,07,14,17.60
2009,07,04,07,15,17.60
2009,07,04,07,16,17.70
2009,07,04,07,17,17.70
2009,07,04,07,18,17.70
2009,07,04,07,19,17.70
2009,07,04,07,20,17.80
2009,07,04,07,21,17.80
2009,07,04,07,22,17.80
2009,07,04,07,23,17.90
2009,07,04,07,24,17.90
2009,07,04,07,25,17.90
2009,07,04,07,26,17.90
2009,07,04,07,27,18.00
2009,07,04,07,28,18.10
2009,07,04,07,29,18.20
2009,07,04,07,30,18.30
2009,07,04,07,31,18.30
2009,07,04,07,32,18.40
2009,07,04,07,33,18.40
2009,07,04,07,34,18.50
2009,07,04,07,35,18.50
2009,07,04,07,36,18.50
2009,07,04,07,37,18.60
2009,07,04,07,38,18.60
2009,07,04,07,39,18.60
2009,07,04,07,40,18.50
2009,07,04,07,41,18.50
2009,07,04,07,42,18.40
2009,07,04,07,43,18.40
2009,07,04,07,44,18.40
2009,07,04,07,45,18.40
2009,07,04,07,46,18.40
2009,07,04,07,47,18.40
2009,07,04,07,48,18.40
2009,07,04,07,49,18.40
2009,07,04,07,50,18.40
2009,07,04,07,51,18.40
2009,07,04,07,52,18.40
2009,07,04,07,53,18.50
2009,07,04,07,54,18.50
2009,07,04,07,55,18.60
2009,07,04,07,56,18.60
2009,07,04,07,57,18.70
2009,07,04,07,58,18.70
2009,07,04,07,59,18.80
2009,07,04,08,00,18.80
2009,07,04,08,01,18.90
2009,07,04,08,02,18.90
2009,07,04,08,03,18.90
2009,07,04,08,04,18.80
2009,07,04,08,05,18.80
2009,07,04,08,06,18.70
2009,07,04,08,07,18.70
2009,07,04,08,08,18.80
2009,07,04,08,09,18.90
2009,07,04,08,10,18.90
2009,07,04,08,11,18.90
2009,07,04,08,12,18.90
2009,07,04,08,13,18.80
2009,07,04,08,14,18.80
2009,07,04,08,15,18.80
2009,07,04,08,16,18.90
2009,07,04,08,17,18.90
2009,07,04,08,18,18.90
2009,07,04,08,19,18.90
2009,07,04,08,20,18.90
2009,07,04,08,21,19.00
2009,07,04,08,22,19.10
2009,07,04,08,23,19.20
2009,07,04,08,24,19.30
2009,07,04,08,25,19.30
2009,07,04,08,26,19.30
2009,07,04,08,27,19.20
2009,07,04,08,28,19.10
2009,07,04,08,29,19.10
2009,07,04,08,30,19.00
2009,07,04,08,31,18.90
2009,07,04,08,32,18.90
2009,07,04,08,33,18.90
2009,07,04,08,34,18.90
2009,07,04,08,35,18.90
2009,07,04,08,36,18.90
2009,07,04,08,37,18.90
2009,07,04,08,38,18.90
2009,07,04,08,39,18.90
2009,07,04,08,40,18.90
2009,07,04,08,41,18.90
2009,07,04,08,42,19.00
2009,07,04,08,43,19.10
2009,07,04,08,44,19.10
2009,07,04,08,45,19.10
2009,07,04,08,46,19.10
2009,07,04,08,47,19.20
2009,07,04,08,48,19.20
2009,07,04,08,49,19.30
2009,07,04,08,50,19.40
2009,07,04,08,51,19.40
2009,07,04,08,52,19.40
2009,07,04,08,53,19.40
2009,07,04,08,54,19.40
2009,07,04,08,55,19.40
2009,07,04,08,56,19.40
2009,07,04,08,57,19.40
2009,07,04,08,58,19.40
2009,07,04,08,59,19.40
2009,07,04,09,00,19.50
2009,07,04,09,01,19.50
2009,07,04,09,02,19.40
2009,07,04,09,03,19.30
2009,07,04,09,04,19.30
2009,07,04,09,05,19.30
2009,07,04,09,06,19.20
2009,07,04,09,07,19.10
2009,07,04,09,08,19.10
2009,07,04,09,09,19.10
2009,07,04,09,10,19.10
2009,07,04,09,11,19.10
2009,07,04,09,12,19.10
2009,07,04,09,13,19.10
2009,07,04,09,14,19.20
2009,07,04,09,15,19.30
2009,07,04,09,16,19.30
2009,07,04,09,17,19.40
2009,07,04,09,18,19.40
2009,07,04,09,19,19.40
2009,07,04,09,20,19.50
2009,07,04,09,21,19.60
2009,07,04,09,22,19.60
2009,07,04,09,23,19.60
2009,07,04,09,24,19.60
2009,07,04,09,25,19.60
2009,07,04,09,26,19.70
2009,07,04,09,27,19.80
2009,07,04,09,28,19.80
2009,07,04,09,29,19.70
2009,07,04,09,30,19.60
2009,07,04,09,31,19.60
2009,07,04,09,32,19.60
2009,07,04,09,33,19.70
2009,07,04,09,34,19.80
2009,07,04,09,35,19.90
2009,07,04,09,36,20.10
2009,07,04,09,37,20.20
2009,07,04,09,38,20.20
2009,07,04,09,39,20.20
2009,07,04,09,40,20.20
2009,07,04,09,41,20.30
2009,07,04,09,42,20.40
2009,07,04,09,43,20.40
2009,07,04,09,44,20.40
2009,07,04,09,45,20.40
2009,07,04,09,46,20.50
2009,07,04,09,47,20.40
2009,07,04,09,48,20.30
2009,07,04,09,49,20.20
2009,07,04,09,50,20.30
2009,07,04,09,51,20.30
2009,07,04,09,52,20.30
2009,07,04,09,53,20.30
2009,07,04,09,54,20.30
2009,07,04,09,55,20.30
2009,07,04,09,56,20.30
2009,07,04,09,57,20.30
2009,07,04,09,58,20.30
2009,07,04,09,59,20.20
2009,07,04,10,00,20.30
2009,07,04,10,01,20.40
2009,07,04,10,02,20.50
2009,07,04,10,03,20.60
2009,07,04,10,04,20.60
2009,07,04,10,05,20.60
2009,07,04,10,06,20.50
2009,07,04,10,07,20.40
2009,07,04,10,08,20.50
2009,07,04,10,09,20.50
2009,07,04,10,10,20.50
2009,07,04,10,11,20.50
2009,07,04,10,12,20.50
2009,07,04,10,13,20.50
2009,07,04,10,14,20.50
2009,07,04,10,15,20.50
2009,07,04,10,16,20.60
2009,07,04,10,17,20.70
2009,07,04,10,18,20.80
2009,07,04,10,19,20.80
2009,07,04,10,20,20.90
2009,07,04,10,21,20.90
2009,07,04,10,22,20.90
2009,07,04,10,23,20.90
2009,07,04,10,24,20.90
2009,07,04,10,25,20.90
2009,07,04,10,26,20.80
2009,07,04,10,27,20.60
2009,07,04,10,28,20.60
2009,07,04,10,29,20.70
2009,07,04,10,30,20.70
2009,07,04,10,31,20.70
2009,07,04,10,32,20.70
2009,07,04,10,33,20.70
2009,07,04,10,34,20.80
2009,07,04,10,35,20.90
2009,07,04,10,36,20.90
2009,07,04,10,37,20.80
2009,07,04,10,38,20.80
2009,07,04,10,39,20.80
2009,07,04,10,40,20.90
2009,07,04,10,41,20.90
2009,07,04,10,42,20.90
2009,07,04,10,43,20.90
2009,07,04,10,44,20.90
2009,07,04,10,45,21.00
2009,07,04,10,46,21.20
2009,07,04,10,47,21.20
2009,07,04,10,48,21.10
2009,07,04,10,49,21.10
2009,07,04,10,50,21.10
2009,07,04,10,51,21.10
2009,07,04,10,52,21.10
2009,07,04,10,53,21.10
2009,07,04,10,54,21.00
2009,07,04,10,55,21.00
2009,07,04,10,56,20.80
2009,07,04,10,57,20.80
2009,07,04,10,58,20.80
2009,07,04,10,59,21.00
2009,07,04,11,00,21.00
2009,07,04,11,01,21.00
2009,07,04,11,02,21.00
2009,07,04,11,03,21.00
2009,07,04,11,04,21.20
2009,07,04,11,05,21.20
2009,07,04,11,06,21.10
2009,07,04,11,07,21.10
2009,07,04,11,08,21.30
2009,07,04,11,09,21.30
2009,07,04,11,10,21.30
2009,07,04,11,11,21.30
2009,07,04,11,12,21.40
2009,07,04,11,13,21.50
2009,07,04,11,14,21.60
2009,07,04,11,15,21.60
2009,07,04,11,16,21.60
2009,07,04,11,17,21.70
2009,07,04,11,18,21.90
2009,07,04,11,19,21.90
2009,07,04,11,20,21.90
2009,07,04,11,21,21.60
2009,07,04,11,22,21.50
2009,07,04,11,23,21.40
2009,07,04,11,24,21.40
2009,07,04,11,25,21.30
2009,07,04,11,26,21.30
2009,07,04,11,27,21.20
2009,07,04,11,28,21.30
2009,07,04,11,29,21.30
2009,07,04,11,30,21.30
2009,07,04,11,31,21.40
2009,07,04,11,32,21.30
2009,07,04,11,33,21.30
2009,07,04,11,34,21.40
2009,07,04,11,35,21.40
2009,07,04,11,36,21.30
2009,07,04,11,37,21.30
2009,07,04,11,38,21.30
2009,07,04,11,39,21.30
2009,07,04,11,40,21.30
2009,07,04,11,41,21.30
2009,07,04,11,42,21.30
2009,07,04,11,43,21.30
2009,07,04,11,44,21.30
2009,07,04,11,45,21.30
2009,07,04,11,46,21.20
2009,07,04,11,47,21.10
2009,07,04,11,48,21.10
2009,07,04,11,49,21.10
2009,07,04,11,50,21.10
2009,07,04,11,51,21.20
2009,07,04,11,52,21.30
2009,07,04,11,53,21.30
2009,07,04,11,54,21.30
2009,07,04,11,55,21.30
2009,07,04,11,56,21.30
2009,07,04,11,57,21.30
2009,07,04,11,58,21.40
2009,07,04,11,59,21.40
2009,07,04,12,00,21.30
2009,07,04,12,01,21.20
2009,07,04,12,02,21.00
2009,07,04,12,03,21.00
2009,07,04,12,04,21.00
2009,07,04,12,05,21.00
2009,07,04,12,06,21.00
2009,07,04,12,07,21.20
2009,07,04,12,08,21.30
2009,07,04,12,09,21.30
2009,07,04,12,10,21.20
2009,07,04,12,11,21.20
2009,07,04,12,12,21.20
2009,07,04,12,13,21.40
2009,07,04,12,14,21.50
2009,07,04,12,15,21.70
2009,07,04,12,16,21.80
2009,07,04,12,17,21.90
2009,07,04,12,18,21.90
2009,07,04,12,19,21.80
2009,07,04,12,20,21.80
2009,07,04,12,21,21.60
2009,07,04,12,22,21.70
2009,07,04,12,23,21.60
2009,07,04,12,24,21.60
2009,07,04,12,25,21.70
2009,07,04,12,26,21.70
2009,07,04,12,27,21.60
2009,07,04,12,28,21.60
2009,07,04,12,29,21.60
2009,07,04,12,30,21.60
2009,07,04,12,31,21.70
2009,07,04,12,32,21.60
2009,07,04,12,33,21.50
2009,07,04,12,34,21.40
2009,07,04,12,35,21.40
2009,07,04,12,36,21.50
2009,07,04,12,37,21.40
2009,07,04,12,38,21.40
2009,07,04,12,39,21.30
2009,07,04,12,40,21.30
2009,07,04,12,41,21.20
2009,07,04,12,42,21.20
2009,07,04,12,43,21.10
2009,07,04,12,44,21.10
2009,07,04,12,45,21.10
2009,07,04,12,46,21.20
2009,07,04,12,47,21.30
2009,07,04,12,48,21.40
2009,07,04,12,49,21.50
2009,07,04,12,50,21.60
2009,07,04,12,51,21.60
2009,07,04,12,52,21.70
2009,07,04,12,53,21.70
2009,07,04,12,54,21.70
2009,07,04,12,55,21.70
2009,07,04,12,56,21.70
2009,07,04,12,57,21.80
2009,07,04,12,58,21.80
2009,07,04,12,59,21.70
2009,07,04,13,00,21.80
2009,07,04,13,01,21.80
2009,07,04,13,02,21.80
2009,07,04,13,03,21.80
2009,07,04,13,04,22.00
2009,07,04,13,05,22.10
2009,07,04,13,06,22.00
2009,07,04,13,07,22.10
2009,07,04,13,08,22.20
2009,07,04,13,09,22.30
2009,07,04,13,10,22.40
2009,07,04,13,11,22.40
2009,07,04,13,12,22.40
2009,07,04,13,13,22.30
2009,07,04,13,14,22.30
2009,07,04,13,15,22.30
2009,07,04,13,16,22.20
2009,07,04,13,17,22.30
2009,07,04,13,18,22.40
2009,07,04,13,19,22.50
2009,07,04,13,20,22.50
2009,07,04,13,21,22.60
2009,07,04,13,22,22.60
2009,07,04,13,23,22.80
2009,07,04,13,24,22.90
2009,07,04,13,25,23.00
2009,07,04,13,26,23.10
2009,07,04,13,27,23.20
2009,07,04,13,28,23.20
2009,07,04,13,29,23.20
2009,07,04,13,30,23.30
2009,07,04,13,31,23.30
2009,07,04,13,32,23.40
2009,07,04,13,33,23.50
2009,07,04,13,34,23.60
2009,07,04,13,35,23.80
2009,07,04,13,36,23.90
2009,07,04,13,37,23.90
2009,07,04,13,38,24.00
2009,07,04,13,39,24.10
2009,07,04,13,40,24.10
2009,07,04,13,41,24.10
2009,07,04,13,42,24.20
2009,07,04,13,43,24.10
2009,07,04,13,44,24.10
2009,07,04,13,45,24.10
2009,07,04,13,46,24.00
2009,07,04,13,47,23.80
2009,07,04,13,48,23.60
2009,07,04,13,49,23.50
2009,07,04,13,50,23.40
2009,07,04,13,51,23.40
2009,07,04,13,52,23.40
2009,07,04,13,53,23.50
2009,07,04,13,54,23.60
2009,07,04,13,55,23.60
2009,07,04,13,56,23.60
2009,07,04,13,57,23.70
2009,07,04,13,58,23.70
2009,07,04,13,59,23.70
2009,07,04,14,00,23.80
2009,07,04,14,01,23.90
2009,07,04,14,02,23.90
2009,07,04,14,03,23.90
2009,07,04,14,04,24.00
2009,07,04,14,05,24.10
2009,07,04,14,06,24.20
2009,07,04,14,07,24.40
2009,07,04,14,08,24.40
2009,07,04,14,09,24.50
2009,07,04,14,10,24.50
2009,07,04,14,11,24.50
2009,07,04,14,12,24.50
2009,07,04,14,13,24.40
2009,07,04,14,14,24.40
2009,07,04,14,15,24.40
2009,07,04,14,16,24.40
2009,07,04,14,17,24.50
2009,07,04,14,18,24.60
2009,07,04,14,19,24.60
2009,07,04,14,20,24.70
2009,07,04,14,21,24.60
2009,07,04,14,22,24.50
2009,07,04,14,23,24.30
2009,07,04,14,24,24.20
2009,07,04,14,25,24.20
2009,07,04,14,26,24.30
2009,07,04,14,27,24.40
2009,07,04,14,28,24.50
2009,07,04,14,29,24.40
2009,07,04,14,30,24.40
2009,07,04,14,31,24.30
2009,07,04,14,32,24.40
2009,07,04,14,33,24.50
2009,07,04,14,34,24.50
2009,07,04,14,35,24.50
2009,07,04,14,36,24.50
2009,07,04,14,37,24.40
2009,07,04,14,38,24.20
2009,07,04,14,39,24.20
2009,07,04,14,40,24.10
2009,07,04,14,41,24.10
2009,07,04,14,42,24.00
2009,07,04,14,43,23.80
2009,07,04,14,44,23.80
2009,07,04,14,45,23.90
2009,07,04,14,46,24.00
2009,07,04,14,47,24.10
2009,07,04,14,48,24.30
2009,07,04,14,49,24.30
2009,07,04,14,50,24.40
2009,07,04,14,51,24.50
2009,07,04,14,52,24.60
2009,07,04,14,53,24.70
2009,07,04,14,54,24.80
2009,07,04,14,55,24.90
2009,07,04,14,56,25.00
2009,07,04,14,57,25.10
2009,07,04,14,58,25.20
2009,07,04,14,59,25.30
2009,07,04,15,00,25.40
2009,07,04,15,01,25.40
2009,07,04,15,02,25.50
2009,07,04,15,03,25.40
2009,07,04,15,04,25.40
2009,07,04,15,05,25.30
2009,07,04,15,06,25.20
2009,07,04,15,07,25.10
2009,07,04,15,08,25.10
2009,07,04,15,09,25.10
2009,07,04,15,10,25.10
2009,07,04,15,11,25.10
2009,07,04,15,12,25.10
2009,07,04,15,13,25.10
2009,07,04,15,14,25.10
2009,07,04,15,15,25.10
2009,07,04,15,16,25.10
2009,07,04,15,17,25.10
2009,07,04,15,18,25.10
2009,07,04,15,19,25.10
2009,07,04,15,20,25.00
2009,07,04,15,21,25.00
2009,07,04,15,22,25.10
2009,07,04,15,23,25.20
2009,07,04,15,24,25.30
2009,07,04,15,25,25.40
2009,07,04,15,26,25.50
2009,07,04,15,27,25.50
2009,07,04,15,28,25.60
2009,07,04,15,29,25.70
2009,07,04,15,30,25.60
2009,07,04,15,31,25.70
2009,07,04,15,32,25.70
2009,07,04,15,33,25.80
2009,07,04,15,34,25.80
2009,07,04,15,35,25.80
2009,07,04,15,36,25.80
2009,07,04,15,37,25.80
2009,07,04,15,38,25.70
2009,07,04,15,39,25.80
2009,07,04,15,40,25.90
2009,07,04,15,41,26.00
2009,07,04,15,42,26.00
2009,07,04,15,43,26.10
2009,07,04,15,44,26.20
2009,07,04,15,45,26.20
2009,07,04,15,46,26.30
2009,07,04,15,47,26.40
2009,07,04,15,48,26.50
2009,07,04,15,49,26.60
2009,07,04,15,50,26.60
2009,07,04,15,51,26.60
2009,07,04,15,52,26.60
2009,07,04,15,53,26.60
2009,07,04,15,54,26.60
2009,07,04,15,55,26.70
2009,07,04,15,56,26.80
2009,07,04,15,57,26.80
2009,07,04,15,58,26.80
2009,07,04,15,59,26.80
2009,07,04,16,00,26.90
2009,07,04,16,01,27.10
2009,07,04,16,02,27.20
2009,07,04,16,03,27.30
2009,07,04,16,04,27.30
2009,07,04,16,05,27.20
2009,07,04,16,06,26.80
2009,07,04,16,07,26.40
2009,07,04,16,08,26.10
2009,07,04,16,09,25.90
2009,07,04,16,10,25.70
2009,07,04,16,11,25.50
2009,07,04,16,12,25.30
2009,07,04,16,13,25.20
2009,07,04,16,14,25.10
2009,07,04,16,15,25.10
2009,07,04,16,16,25.10
2009,07,04,16,17,25.00
2009,07,04,16,18,24.90
2009,07,04,16,19,24.90
2009,07,04,16,20,24.90
2009,07,04,16,21,25.00
2009,07,04,16,22,25.00
2009,07,04,16,23,25.00
2009,07,04,16,24,25.00
2009,07,04,16,25,24.90
2009,07,04,16,26,24.90
2009,07,04,16,27,24.90
2009,07,04,16,28,24.80
2009,07,04,16,29,24.80
2009,07,04,16,30,24.80
2009,07,04,16,31,24.70
2009,07,04,16,32,24.80
2009,07,04,16,33,24.90
2009,07,04,16,34,25.10
2009,07,04,16,35,25.30
2009,07,04,16,36,25.60
2009,07,04,16,37,25.70
2009,07,04,16,38,25.80
2009,07,04,16,39,25.90
2009,07,04,16,40,25.90
2009,07,04,16,41,26.00
2009,07,04,16,42,26.20
2009,07,04,16,43,26.30
2009,07,04,16,44,26.50
2009,07,04,16,45,26.60
2009,07,04,16,46,26.60
2009,07,04,16,47,26.70
2009,07,04,16,48,26.70
2009,07,04,16,49,26.80
2009,07,04,16,50,26.90
2009,07,04,16,51,27.00
2009,07,04,16,52,27.10
2009,07,04,16,53,27.10
2009,07,04,16,54,27.10
2009,07,04,16,55,27.00
2009,07,04,16,56,26.90
2009,07,04,16,57,26.80
2009,07,04,16,58,26.90
2009,07,04,16,59,27.00
2009,07,04,17,00,27.10
2009,07,04,17,01,27.10
2009,07,04,17,02,27.10
2009,07,04,17,03,27.20
2009,07,04,17,04,27.10
2009,07,04,17,05,27.10
2009,07,04,17,06,27.10
2009,07,04,17,07,27.20
2009,07,04,17,08,27.20
2009,07,04,17,09,27.20
2009,07,04,17,10,27.20
2009,07,04,17,11,27.20
2009,07,04,17,12,27.10
2009,07,04,17,13,26.90
2009,07,04,17,14,26.80
2009,07,04,17,15,26.60
2009,07,04,17,16,26.70
2009,07,04,17,17,26.70
2009,07,04,17,18,26.70
2009,07,04,17,19,26.80